Home > Weather > Alicante > Past weeks

Flag for Spain Past Weather in Alicante, Spain — Yesterday and Last 2 Weeks

Now
86 °F

Passing clouds.


Feels Like: 85 °F
Forecast: 70 / 85 °F
Wind: 7 mph from South

Location: Alicante / El Altet

Current Time: Jun 30, 2016 at 5:50:58 PM

Latest Report: Jun 30, 2016 at 5:00 PM


Visibility: N/A

Pressure: 29.98 "Hg

Humidity: 35%

Dew Point: 55 °F

Location of AlicanteLocation

Past Weather in Alicante — Graph

°F

Alicante Temperature Yesterday

Maximum temperature yesterday: 82 °F (at 12:00 PM)
Minimum temperature yesterday: 73 °F (at 6:00 AM)
Average temperature yesterday: 78 °F

High & Low Weather Summary for the Past Weeks

 TemperatureHumidityPressure
High88 °F (Jun 30, 2:00 PM)88% (Jun 24, 1:30 AM)30.30 "Hg (Jun 24, 1:30 AM)
Low61 °F (Jun 19, 7:00 AM)20% (Jun 16, 3:00 PM)29.53 "Hg (Jun 15, 5:30 PM)
Average74 °F57%30.05 "Hg
* Reported Jun 15 4:00 PM — Jun 30 4:00 PM, Alicante, Weather by CustomWeather, © 2016

Note: Actual official high and low records may vary slightly from our data, if they occured in-between our weather recording intervals... More about our weather records

Advertising

Alicante Weather History for the Previous 24 Hours

Scroll right to see more
 ConditionsComfort  
Time TempWeatherWind HumidityBarometerVisibility
4:00 PM
Thu, Jun 30
88 °FPassing clouds.8 mph31%29.98 "HgN/A
3:30 PM88 °FPassing clouds.8 mph27%29.98 "HgN/A
3:00 PM88 °FPassing clouds.9 mph29%29.98 "HgN/A
2:30 PM88 °FPassing clouds.9 mph35%30.01 "HgN/A
2:00 PM88 °FPassing clouds.8 mph38%30.01 "HgN/A
1:30 PM86 °FPassing clouds.6 mph40%30.01 "HgN/A
1:00 PM86 °FPassing clouds.6 mph40%30.01 "HgN/A
12:30 PM84 °FPassing clouds.6 mph43%30.01 "HgN/A
12:00 PM82 °FPassing clouds.6 mph45%30.01 "HgN/A
11:30 AM82 °FPassing clouds.6 mph48%30.01 "HgN/A
11:00 AM81 °FPassing clouds.3 mph54%30.01 "HgN/A
10:30 AM81 °FSunny.3 mph54%30.01 "Hg10 mi
10:00 AM79 °FPassing clouds.2 mph61%30.01 "HgN/A
9:30 AM77 °FPassing clouds.2 mph65%30.01 "HgN/A
9:00 AM75 °FPassing clouds.3 mph74%30.01 "HgN/A
8:30 AM75 °FPassing clouds.3 mph78%30.01 "HgN/A
8:00 AM75 °FSunny.1 mph74%29.98 "Hg10 mi
7:30 AM70 °FClear.No wind78%29.98 "Hg10 mi
7:00 AM70 °FClear.1 mph78%29.98 "Hg10 mi
6:30 AM70 °FPassing clouds.3 mph78%29.98 "HgN/A
6:00 AM72 °FClear.5 mph73%29.98 "Hg10 mi
5:30 AM70 °FPassing clouds.3 mph69%29.98 "HgN/A
5:00 AM70 °FClear.5 mph64%29.98 "Hg10 mi
4:30 AM70 °FClear.3 mph73%29.95 "Hg10 mi
4:00 AM72 °FClear.2 mph69%29.95 "Hg10 mi
3:30 AM72 °FClear.3 mph65%29.95 "Hg10 mi
3:00 AM72 °FClear.2 mph65%29.98 "Hg10 mi
2:30 AM72 °FClear.1 mph65%29.98 "Hg10 mi
2:00 AM72 °FClear.3 mph65%29.98 "Hg10 mi
1:30 AM73 °FClear.1 mph61%29.98 "Hg10 mi
1:00 AM73 °FClear.2 mph61%29.98 "Hg10 mi
12:30 AM73 °FClear.2 mph65%30.01 "Hg10 mi
12:00 AM73 °FClear.2 mph69%30.01 "Hg10 mi
11:30 PM
Wed, Jun 29
75 °FClear.No wind65%29.98 "Hg10 mi
11:00 PM75 °FClear.2 mph65%29.98 "Hg10 mi
10:30 PM75 °FClear.No wind65%29.98 "Hg10 mi
10:00 PM77 °FSunny.2 mph61%29.95 "Hg10 mi
9:30 PM77 °FSunny.6 mph61%29.95 "Hg10 mi
9:00 PM79 °FSunny.2 mph54%29.98 "Hg10 mi
8:30 PM79 °FPassing clouds.3 mph54%29.95 "HgN/A
8:00 PM79 °FPassing clouds.3 mph58%29.95 "HgN/A
7:30 PM79 °FSunny.7 mph54%29.95 "Hg10 mi
7:00 PM79 °FPassing clouds.7 mph54%29.95 "HgN/A
6:30 PM81 °FPassing clouds.7 mph51%29.95 "HgN/A
6:00 PM81 °FPassing clouds.8 mph54%29.95 "HgN/A
5:30 PM81 °FPassing clouds.8 mph54%29.95 "HgN/A
5:00 PM82 °FPassing clouds.10 mph48%29.95 "HgN/A
Weather by CustomWeather, © 2016

See weather overviewHow to use our weather pages